Domov               UVHVVR             MKGP            O straneh              
ZDRAVSTVENO VARSTVO RASTLIN
  MREŽA AGROMET. POSTAJ
 ► PROGNOSTIČNA OBVESTILA
AGROMETEOROLOŠKI PODATKI -
ARSO
OBVLADOVANJE TVEGANJ ZARADI
NEUGODNIH VREMENSKIH RAZMER
  ► NARAVNE NESREČE
  ► SUŠA/MOČA
  ► NAMAKANJE
  ► ŽLED (gozdarstvo)
KARTOGRAFSKI PRIKAZI
SPLETNE POVEZAVE
PROJEKTI IN PUBLIKACIJE

AGROMETEOROLOŠKA MREŽA: VREMENSKE POSTAJE IN FENOLOŠKA OPAZOVANJA

Pregled podatkov za lokacijo Šentilj, meteorološka postaja 24379

Pregled senzorjev na lokaciji

ID Ime Zadnja
vrednost
Datum
zadnje
spremembe
Tip
senzorja
904 Omočenost lista (U) 0 U 24.8.2017 04:00 A730WET
905 Temperatura 2 m ( °C) 15,19 °C 24.8.2017 04:00 Generic -40 - +60 °C
906 Relativna vlaga 2 m (% RH) 80,93 % RH 24.8.2017 04:00 Generic 0 - 100 %
3858 Padavine 0.2 mm (mm) 0 mm 24.8.2017 04:00 Generic 0.2 mm

Pregled podatkov zadnjih 24 ur

Zap.
št.
Datum in čas Šentilj
Omočenost
lista
Padavine
0.2
mm
Relativna
vlaga
2
m
Temperatura
2
m
0 24.8.2017 03:00 0 0 80,93 15,19
1 24.8.2017 02:30 0 0 81,39 15,31
2 24.8.2017 02:00 0 0 81,39 15,48
3 24.8.2017 01:30 0 0 81,17 15,73
4 24.8.2017 01:00 0 0 80,2 16,09
5 24.8.2017 00:30 0 0 77,34 16,53
6 24.8.2017 00:00 0 0 72,55 17,31
7 23.8.2017 23:30 0 0 72,14 17
8 23.8.2017 23:00 0 0 75,6 16,39
9 23.8.2017 22:30 0 0 70,33 17,09
10 23.8.2017 22:00 0 0 69,06 17,51
11 23.8.2017 21:30 0 0 64,59 18,27
12 23.8.2017 21:00 0 0 59,34 19,24
13 23.8.2017 20:30 0 0 56,58 19,93
14 23.8.2017 20:00 0 0 56,19 20,15
15 23.8.2017 19:30 0 0 53,87 20,71
16 23.8.2017 19:00 0 0 52,28 21,22
17 23.8.2017 18:30 0 0 51,89 21,59
18 23.8.2017 18:00 0 0 50,16 22,34
19 23.8.2017 17:30 0 0 46,67 23,93
20 23.8.2017 17:00 0 0 45,03 24,57
21 23.8.2017 16:30 0 0 44,37 24,62
22 23.8.2017 16:00 0 0 45,03 24,66
23 23.8.2017 15:30 0 0 45,71 24,57
24 23.8.2017 15:00 0 0 45,18 24,35
25 23.8.2017 14:30 0 0 45,18 24,18
26 23.8.2017 14:00 0 0 46,01 23,71
27 23.8.2017 13:30 0 0 45,71 23
28 23.8.2017 13:00 0 0 47,37 22,56
29 23.8.2017 12:30 0 0 48,94 22,3
30 23.8.2017 12:00 0 0 48,72 21,68
31 23.8.2017 11:30 0 0 49,16 21,68
32 23.8.2017 11:00 0 0 50,48 20,83
33 23.8.2017 10:30 0 0 51,21 20,42
34 23.8.2017 10:00 0 0 53,33 20,39
35 23.8.2017 09:30 0 0 56,85 19,51
36 23.8.2017 09:00 0 0 56,39 19,29
37 23.8.2017 08:30 0 0 58,56 18,93
38 23.8.2017 08:00 0 0 74,14 15,95
39 23.8.2017 07:30 0 0 82,03 14,14
40 23.8.2017 07:00 0 0 82,1 13,46
41 23.8.2017 06:30 0 0 85,23 12,48
42 23.8.2017 06:00 0 0 91,84 11,04
43 23.8.2017 05:30 0 0 91,58 11,01
© 2011 Ministrstvo za kmetijstvo, gozdarstvo in prehrano. Vse pravice pridržane.